User: anonymous   Login
Location: Bay Ridge
(40.6340°N, 74.0146°W)
Time: 15:24:12
(UTC+00:00)
Language:

Cosmos 1328 Rocket - Orbit

View from above orbital plane
View from above orbital plane
View from above satellite
View from above satellite

Ground track
Ground track

The orbit data is extracted from the following two-line orbital elements,

1 12988U 81117B   20022.44271420  .00000067  00000-0  51073-5 0  9990
2 12988  82.5239 262.8762 0016988 314.9838 218.1564 14.84755547 60665
Epoch (UTC): 22 January 2020 10:37:30
Eccentricity: 0.0016988
inclination: 82.5239°
perigee height: 602 km
apogee height: 626 km
right ascension of ascending node: 262.8762°
argument of perigee: 314.9838°
revolutions per day: 14.84755547
mean anomaly at epoch: 218.1564°
orbit number at epoch: 6066

The dashed part of the orbit path shows where the satellite is in the earth's shadow,  

DLR